Regional Weather Roundup
Issued by NWS Bismarck, ND

Home | Current Version | Previous Version | Text Only | Print | Product List | Glossary On
Versions: 1 2 3 4 5 6 7 8 9 10 11 12 13 14 15 16 17 18 19 20 21 22 23 24 25 26 27 28 29 30 31 32 33 34 35 36 37 38 39 40 41 42 43 44 45 46 47 48 49 50
000
ASUS43 KBIS 261202
RWRBIS

NWR BROADCAST TEXT
NATIONAL WEATHER SERVICE BISMARCK ND
700 AM CDT MON SEP 26 2016

NOTE: "FAIR" INDICATES FEW OR NO CLOUDS BELOW 12,000 FEET WITH NO
SIGNIFICANT WEATHER AND/OR OBSTRUCTIONS TO VISIBILITY.


CITY           SKY/WX    TMP DP  RH WIND       PRES   REMARKS
WILLISTON      CLEAR     40  33  76 S5        30.20S
MINOT          CLEAR     46  34  62 W14       30.11S
MINOT AFB      CLEAR     44  34  69 W15       30.10S
BISMARCK       CLEAR     41  34  76 W8        30.17S
DICKINSON      CLEAR     36  34  92 W7        30.19S
GARRISON         N/A     41  37  86 W10       30.14S
HETTINGER ARPT CLEAR     37  34  89 W6        30.22F
JAMESTOWN      CLEAR     46  36  68 W13       30.06S
CARRINGTON     FAIR      43  36  75 W13G18    30.09R
HAZEN          FAIR      37  32  81 SW9       30.19S
RUGBY          FAIR      37  36  93 W12       30.06S
STANLEY        FAIR      39  37  93 NW10      30.18S
$$

CITY           SKY/WX    TMP DP  RH WIND       PRES   REMARKS
GRAND FORKS    PTCLDY    48  37  65 NW15      29.94S
GRAND FORKS AF CLEAR     48  37  64 NW13      29.95S
DEVILS LAKE    CLEAR     45  37  73 W13       30.03S
FARGO          CLEAR     47  36  65 W12       29.98R
CANDO          FAIR      39  37  93 W10       30.04F
CAVALIER       FAIR      46  37  71 NW12G17   29.92S
GRAFTON        FAIR      48  39  71 W15       29.95R
GWINNER        FAIR      45  37  76 W13       30.06S
LANGDON        FAIR      43  37  81 W14       29.97S
ROLLA          FAIR      46  32  57 NW16G25   30.02F
WALHALLA       FAIR      46  45  93 W15G22    29.93S
$$

CITY           SKY/WX    TMP DP  RH WIND       PRES   REMARKS
ABERDEEN       CLEAR     43  35  73 W7        30.14R
MOBRIDGE       CLEAR     45  38  76 W10       30.17R
BUFFALO          N/A     43  37  79 W10       30.17F
RAPID CITY     CLEAR     45  33  63 SW3       30.27S
GLASGOW        CLEAR     40  37  89 NW16      30.22S
SIDNEY         CLEAR     37  35  92 S3        30.22S
WOLF POINT     CLEAR     36  34  92 W5        30.23R
GLENDIVE       CLEAR     43  38  82 SE3       30.22F
MILES CITY     CLEAR     44  39  82 W9        30.25R
BAKER          CLEAR     37  34  89 CALM      30.25S
$$

CITY           SKY/WX    TMP DP  RH WIND       PRES   REMARKS
BILLINGS       PTCLDY    52  42  69 SW12      30.34S
GREAT FALLS    CLOUDY    47  40  76 SW8       30.32S
$$





USA.gov is the U.S. government's official web portal to all federal, state and local government web resources and services.